www.pogodaiklimat.ru

Погода и климат >> Архив погоды >> Бельгия >> Ernage


ПОГОДА в Ernage

  • Прогноз погоды в Ernage
  • Монитор погоды в Ernage
  • Климат города

АРХИВ ПОГОДЫ в Ernage

Время (UTC), дата Ветер
(напр.,м/с)
 
Видим.   Явления Облачность Т
(С)
Тd
(С)
f
(%)
Тe
(С)
Тes
(С)
Комфортность P
(гПа)
Po
(гПа)
Тmin
(С)
Tmax
(С)
R
(мм)
R24
(мм)
S
(см)
22 11.08 Ю 1 н/о н/о +12.4 +7.3 71 +13 +13 1022.1 1002.7
23 11.08 Ю 1 н/о н/о +12.7 +8.7 77 +13 +13 1021.7 1002.3
00 12.08 Ю 1 н/о н/о +13.1 +8.3 73 +13 +13 1021.1 1001.9 190
02 12.08 ЮВ 2 н/о н/о +11.5 +7.6 77 +10 +10 1020.0 1000.7
01 12.08 Ю 1 н/о н/о +13.6 +8.2 70 +14 +14 1020.5 1001.3
03 12.08 ЮВ 3 н/о н/о +12.1 +8.3 78 +11 +11 1019.5 1000.2
04 12.08 ЮВ 3 н/о н/о +12.6 +8.0 74 +11 +11 1018.7 999.5
05 12.08 ЮВ 2 н/о н/о +13.0 +7.9 71 +12 +12 1018.5 999.2 1
06 12.08 ЮВ 4 н/о н/о +15.1 +8.1 63 +14 +14 1018.0 998.9 +11.1 21
08 12.08 Ю 5 н/о н/о +20.1 +7.9 45 +21 +21 комфорт 1017.1 998.4 107
07 12.08 Ю 4 н/о н/о +17.6 +8.8 56 +17 +17 1017.6 998.7 58
09 12.08 Ю 6 н/о н/о +22.2 +7.6 39 +23 +23 комфорт 1016.5 997.9 154
10 12.08 Ю 5 н/о н/о +23.6 +8.0 37 +24 +24 комфорт 1015.9 997.4 176
11 12.08 Ю 4 н/о н/о +24.6 +7.5 34 +25 +25 комфорт 1015.2 996.7 218
12 12.08 Ю 4 н/о н/о +25.5 +6.8 30 +25 +25 комфорт 1014.4 996.0 235
14 12.08 Ю 5 н/о н/о +26.7 +7.3 29 +26 +26 жарко 1012.6 994.3 220
13 12.08 Ю 5 н/о н/о +26.0 +5.7 27 +25 +25 комфорт 1013.7 995.4 232
15 12.08 Ю 5 н/о н/о +27.1 +6.1 26 +26 +26 жарко 1011.8 993.5 209
16 12.08 Ю 4 н/о н/о +26.8 +8.0 30 +27 +27 жарко 1011.1 992.8 149
17 12.08 Ю 4 н/о н/о +25.6 +8.8 34 +26 +26 жарко 1010.6 992.3 67
18 12.08 ЮВ 3 н/о н/о +24.9 +8.2 35 +25 +25 комфорт 1010.1 991.8 +27.3 42
20 12.08 ЮВ 2 н/о н/о +21.8 +8.5 42 +23 +23 комфорт 1009.7 991.2
19 12.08 ЮВ 2 н/о н/о +23.1 +9.0 41 +25 +25 комфорт 1010.0 991.5 10
21 12.08 ЮВ 2 н/о н/о +21.2 +8.8 45 +22 +22 комфорт 1009.1 990.6
22 12.08 ЮВ 2 н/о н/о +21.1 +9.1 46 +22 +22 комфорт 1008.6 990.1
23 12.08 В 2 н/о н/о +19.7 +10.7 56 +22 +22 комфорт 1008.0 989.4
00 13.08 З 5 н/о н/о +21.2 +9.7 48 +23 +23 комфорт 1008.5 990.0 190
02 13.08 Ю 1 н/о н/о +17.7 +15.0 84 +19 +19 1007.4 988.6
01 13.08 З 4 н/о н/о +19.0 +13.1 69 +20 +20 1008.2 989.5
03 13.08 Ю 4 н/о н/о +17.2 +15.7 91 +17 +17 1008.4 989.6
04 13.08 ЮВ 4 н/о н/о +16.7 +15.9 95 +16 +16 1006.6 987.8
05 13.08 ЮЗ 3 н/о н/о +16.4 +15.6 95 +16 +16 1006.8 988.0
06 13.08 Ю 3 н/о н/о +16.9 +16.4 97 +17 +17 1007.1 988.4 +16.3 14
08 13.08 Ю 4 н/о н/о +18.2 +16.9 92 +18 +18 1007.3 988.6 63
07 13.08 ЮЗ 3 н/о н/о +17.6 +16.9 96 +18 +18 1007.2 988.5 36
09 13.08 ЮЗ 4 н/о н/о +17.2 +16.3 94 +17 +17 1007.5 988.8 36
10 13.08 ЮЗ 5 н/о н/о +18.5 +17.4 93 +19 +19 1007.5 988.9 80
11 13.08 ЮЗ 6 н/о н/о +19.5 +15.3 77 +21 +21 комфорт 1007.5 988.9 147
12 13.08 ЮЗ 5 н/о н/о +17.2 +15.7 91 +17 +17 1008.1 989.3 67
14 13.08 Ю 4 н/о н/о +17.2 +16.0 93 +17 +17 1008.3 989.6 55
13 13.08 ЮЗ 6 н/о н/о +17.0 +15.4 90 +16 +16 1008.3 989.5 65
15 13.08 ЮЗ 6 н/о н/о +19.1 +15.5 80 +20 +20 1008.1 989.5 150
16 13.08 Ю 5 н/о н/о +19.1 +15.7 81 +20 +20 1008.0 989.3 120
17 13.08 ЮЗ 2 н/о н/о +16.9 +15.8 93 +17 +17 1008.9 990.1 12
18 13.08 ЮЗ 2 н/о н/о +17.7 +16.1 90 +18 +18 1009.1 990.3 +20.3 52
20 13.08 ЮЗ 3 н/о н/о +17.2 +16.2 94 +17 +17 1010.1 991.3
19 13.08 Ю 1 н/о н/о +17.4 +15.9 91 +18 +18 1009.4 990.6 14
21 13.08 ЮЗ 4 н/о н/о +16.6 +14.7 89 +16 +16 1010.4 991.5
22 13.08 ЮЗ 3 н/о н/о +16.2 +14.8 91 +16 +16 1011.1 992.2
23 13.08 ЮЗ 3 н/о н/о +15.7 +14.3 91 +15 +15 1011.5 992.6
00 14.08 ЮЗ 3 н/о н/о +15.2 +13.8 91 +14 +14 1011.9 993.0 91
02 14.08 ЮЗ 3 н/о н/о +15.0 +14.2 95 +14 +14 1012.3 993.4
01 14.08 ЮЗ 4 н/о н/о +14.9 +13.9 94 +14 +14 1012.2 993.2
03 14.08 ЮЗ 4 н/о н/о +15.4 +14.8 96 +14 +14 1012.6 993.7
04 14.08 ЮЗ 4 н/о н/о +15.9 +15.3 96 +15 +15 1013.0 994.0
05 14.08 ЮЗ 4 н/о н/о +16.0 +15.5 97 +15 +15 1013.4 994.5
06 14.08 ЮЗ 4 н/о н/о +16.4 +15.8 96 +16 +16 1014.1 995.2 +14.8 5
08 14.08 ЮЗ 4 н/о н/о +17.5 +16.4 93 +17 +17 1015.4 996.6 37
07 14.08 ЮЗ 4 н/о н/о +16.9 +16.1 95 +16 +16 1015.1 996.2 14
09 14.08 З 4 н/о н/о +18.7 +16.5 87 +20 +20 1015.8 997.1 102
10 14.08 ЮЗ 4 н/о н/о +19.1 +16.4 84 +21 +21 комфорт 1016.1 997.4 77
11 14.08 З 6 н/о н/о +19.9 +15.6 76 +22 +22 комфорт 1016.4 997.7 82
12 14.08 ЮЗ 6 н/о н/о +20.8 +15.2 70 +24 +24 комфорт 1016.7 998.0 107
14 14.08 З 5 н/о н/о +21.9 +15.3 66 +25 +25 комфорт 1017.1 998.5 91
13 14.08 З 6 н/о н/о +21.1 +15.0 68 +24 +24 комфорт 1016.8 998.1 112
15 14.08 З 6 н/о н/о +21.9 +14.6 63 +25 +25 комфорт 1017.2 998.6 71
16 14.08 З 6 н/о н/о +21.3 +14.0 63 +24 +24 комфорт 1017.6 998.9 70
17 14.08 З 5 н/о н/о +21.6 +13.5 60 +24 +24 комфорт 1017.8 999.1 76
18 14.08 З 4 н/о н/о +20.4 +13.1 63 +23 +23 комфорт 1018.0 999.2 +21.9 27
20 14.08 З 2 н/о н/о +17.9 +13.3 74 +18 +18 1019.2 1000.3
19 14.08 СЗ 4 н/о н/о +19.1 +13.1 68 +20 +20 1018.8 999.9 5
21 14.08 ЮЗ 2 н/о н/о +18.0 +13.7 76 +19 +19 1019.4 1000.5
22 14.08 ЮЗ 3 н/о н/о +17.1 +13.2 78 +17 +17 1019.7 1000.8
23 14.08 ЮЗ 3 н/о н/о +16.2 +12.7 80 +16 +16 1020.2 1001.1
00 15.08 ЮЗ 2 н/о н/о +15.3 +12.8 85 +15 +15 1020.4 1001.3 88
02 15.08 Ю 3 н/о н/о +14.5 +13.0 91 +14 +14 1019.8 1000.7
01 15.08 Ю 3 н/о н/о +14.8 +12.7 87 +14 +14 1020.0 1000.9
03 15.08 ЮЗ 3 н/о н/о +14.9 +13.8 93 +14 +14 1019.4 1000.3
04 15.08 Ю 3 н/о н/о +15.2 +14.1 93 +14 +14 1019.4 1000.3
05 15.08 ЮЗ 3 н/о н/о +15.4 +14.5 94 +15 +15 1019.7 1000.7
06 15.08 ЮЗ 3 н/о н/о +16.0 +15.1 94 +15 +15 1019.9 1000.9 +14.5 10
08 15.08 ЮЗ 4 н/о н/о +17.7 +15.3 86 +17 +17 1020.6 1001.6 54
07 15.08 ЮЗ 4 н/о н/о +16.9 +15.4 91 +16 +16 1020.3 1001.3 27
09 15.08 З 6 н/о н/о +19.0 +15.4 80 +20 +20 1020.9 1002.1 71
10 15.08 ЮЗ 5 н/о н/о +19.6 +15.0 75 +21 +21 комфорт 1020.8 1001.9 103
11 15.08 ЮЗ 4 н/о н/о +19.6 +15.0 75 +22 +22 комфорт 1020.7 1001.9 82
12 15.08 ЮЗ 6 н/о н/о +20.8 +15.1 70 +24 +24 комфорт 1020.6 1001.9 94
14 15.08 ЮЗ 4 н/о н/о +19.5 +15.6 78 +21 +21 комфорт 1020.7 1001.9 64
13 15.08 ЮЗ 5 н/о н/о +19.3 +15.0 76 +21 +21 комфорт 1020.8 1002.0 91
15 15.08 ЮЗ 4 н/о н/о +20.0 +15.2 74 +22 +22 комфорт 1020.4 1001.6 58
16 15.08 ЮЗ 4 н/о н/о +20.6 +14.7 69 +23 +23 комфорт 1020.1 1001.4 82
17 15.08 ЮЗ 4 н/о н/о +20.5 +14.6 69 +23 +23 комфорт 1019.8 1001.0 52
18 15.08 ЮЗ 5 н/о н/о +20.0 +14.2 69 +22 +22 комфорт 1019.6 1000.8 +20.8 36
20 15.08 ЮЗ 2 н/о н/о +17.0 +13.5 80 +17 +17 1019.9 1000.9
19 15.08 ЮЗ 3 н/о н/о +18.5 +13.5 73 +19 +19 1019.8 1000.9 14
21 15.08 Ю 2 н/о н/о +16.5 +13.3 81 +17 +17 1019.8 1000.8
22 15.08 Ю 2 н/о н/о +15.9 +12.6 81 +16 +16 1019.9 1000.8
23 15.08 Ю 2 н/о н/о +15.7 +12.9 83 +16 +16 1019.4 1000.3
00 16.08 З 2 н/о н/о +14.8 +12.6 87 +14 +14 1019.4 1000.3 84
02 16.08 Ю 2 н/о н/о +13.3 +12.4 94 +12 +12 1018.8 999.6
01 16.08 Ю 2 н/о н/о +13.5 +12.2 92 +13 +13 1019.2 1000.0
03 16.08 Ю 2 н/о н/о +13.5 +12.6 94 +13 +13 1018.4 999.2
04 16.08 Ю 2 н/о н/о +14.7 +13.7 94 +14 +14 1018.1 999.0
05 16.08 Ю 2 н/о н/о +14.8 +13.5 92 +14 +14 1018.1 999.0
06 16.08 Ю 2 н/о н/о +15.5 +13.9 90 +15 +15 1018.0 999.0 +13.1 6
08 16.08 Ю 3 н/о н/о +18.1 +15.0 82 +18 +18 1017.3 998.5 54
07 16.08 ЮВ 3 н/о н/о +16.5 +14.5 88 +16 +16 1017.6 998.6 22
09 16.08 Ю 4 н/о н/о +20.3 +15.2 73 +23 +23 комфорт 1017.1 998.4 131
10 16.08 ЮЗ 3 н/о н/о +22.0 +14.8 64 +25 +25 комфорт 1016.5 997.9 163
11 16.08 Ю 4 н/о н/о +22.9 +14.7 60 +27 +27 душно 1015.9 997.4 197
12 16.08 Ю 3 н/о н/о +24.2 +15.1 57 +27 +27 жарко 1015.5 997.1 217
14 16.08 З 4 н/о н/о +26.1 +13.8 47 +28 +28 жарко 1014.5 996.2 204
13 16.08 Ю 3 н/о н/о +25.5 +14.5 51 +28 +28 жарко 1014.9 996.6 226
15 16.08 З 2 н/о н/о +26.2 +14.0 47 +28 +28 жарко 1014.0 995.7 163
16 16.08 З 4 н/о н/о +27.2 +14.0 44 +29 +29 жарко 1013.8 995.6 144
17 16.08 З 4 н/о н/о +26.9 +13.1 43 +29 +29 жарко 1013.6 995.3 102
18 16.08 СЗ 3 н/о н/о +25.0 +14.6 52 +28 +28 жарко 1013.5 995.1 +27.2 39
20 16.08 С 6 н/о н/о +20.5 +15.6 73 +23 +23 комфорт 1014.8 996.1
19 16.08 С 3 н/о н/о +22.1 +15.0 64 +26 +26 душно 1013.9 995.4 11
21 16.08 н/о н/о +19.5 +15.8 79 1014.9 996.2
22 16.08 С 3 н/о н/о +18.6 +16.1 85 +20 +20 1015.2 996.4
23 16.08 С 5 н/о н/о +18.4 +15.8 85 +19 +19 1015.6 996.8
00 17.08 С 6 н/о н/о +17.8 +16.1 90 +17 +17 1015.9 997.1 168
02 17.08 С 3 н/о н/о +15.5 +14.7 95 +15 +15 1016.4 997.4
01 17.08 СЗ 6 н/о н/о +16.8 +14.5 86 +16 +16 1016.6 997.7
03 17.08 З 3 н/о н/о +15.3 +15.0 98 +15 +15 1017.0 998.0
04 17.08 С 2 н/о н/о +15.4 +15.1 98 +15 +15 1017.2 998.1
05 17.08 СЗ 2 н/о н/о +15.0 +14.7 98 +15 +15 1017.4 998.4
06 17.08 СЗ 2 н/о н/о +15.3 +15.0 98 +15 +15 1018.0 998.9 +15.0 3
08 17.08 СЗ 2
{4}
н/о н/о +15.9 +15.0 94 +16 +16 1018.7 999.7
07 17.08 СЗ 3 н/о н/о +15.4 +15.0 97 +15 +15 1018.5 999.4 14
09 17.08 СЗ 3
{4}
н/о н/о +16.9 +15.6 92 +17 +17 1019.4 1000.4
10 17.08 С 3 н/о н/о +18.2 +13.8 75 +19 +19 1019.8 1000.9 146
11 17.08 С 3
{5}
н/о н/о +19.7 +12.0 61 +21 +21 комфорт 1020.1 1001.3
12 17.08 СЗ 3 н/о н/о +20.6 +11.0 54 +23 +23 комфорт 1020.2 1001.4 243
14 17.08 С 3 н/о н/о +22.0 +10.4 48 +24 +24 комфорт 1019.8 1001.1 167
13 17.08 СЗ 3 н/о н/о +21.6 +10.8 50 +23 +23 комфорт 1019.9 1001.3 242
15 17.08 СЗ 4
{6}
н/о н/о +21.4 +10.9 51 +23 +23 комфорт 1019.7 1001.0
16 17.08 З 2 н/о н/о +22.8 +10.8 47 +25 +25 комфорт 1019.4 1000.8 127
17 17.08 С 3 н/о н/о +20.8 +12.0 57 +23 +23 комфорт 1019.8 1001.0 70
18 17.08 СЗ 3 н/о н/о +20.3 +12.5 61 +23 +23 комфорт 1020.2 1001.4 +22.8 32
20 17.08 С 2 н/о н/о +16.0 +12.5 80 +16 +16 1021.7 1002.6
19 17.08 С 3 н/о н/о +18.4 +13.2 72 +19 +19 1020.8 1001.9 9
21 17.08 н/о н/о +15.2 +12.1 82 1022.0 1002.8
22 17.08 СЗ 2 н/о н/о +13.9 +11.6 86 +13 +13 1022.5 1003.3
23 17.08 З 1 н/о н/о +13.8 +11.9 88 +14 +14 1022.5 1003.3
00 18.08 ЮЗ 3 н/о н/о +13.4 +11.8 90 +12 +12 1022.9 1003.7 146
02 18.08 ЮЗ 1 н/о н/о +12.1 +10.2 88 +12 +12 1023.3 1003.9
01 18.08 ЮЗ 2
{4}
н/о н/о +13.0 +11.0 88 +12 +12 1023.0 1003.7
03 18.08 Ю 2
{4}
н/о н/о +12.4 +10.9 91 +11 +11 1023.4 1004.0
04 18.08 Ю 2 н/о н/о +12.1 +10.6 91 +11 +11 1023.3 1003.9
05 18.08 Ю 2 н/о н/о +12.1 +10.7 91 +11 +11 1023.4 1004.0
06 18.08 Ю 3
{4}
н/о н/о +13.0 +11.6 91 +12 +12 1023.5 1004.2 +11.7
08 18.08 ЮЗ 3 н/о н/о +16.6 +12.9 79 +16 +16 1023.7 1004.6 112
07 18.08 Ю 3 н/о н/о +14.6 +12.5 87 +14 +14 1023.6 1004.4 58
09 18.08 ЮЗ 4 н/о н/о +18.4 +11.0 62 +19 +19 1023.7 1004.7 164
10 18.08 З 4 н/о н/о +19.2 +9.7 54 +20 +20 1023.7 1004.7 169
11 18.08 З 3 н/о н/о +20.6 +10.5 52 +23 +23 комфорт 1023.6 1004.7 226
12 18.08 З 4 н/о н/о +21.0 +11.1 53 +23 +23 комфорт 1023.5 1004.7 197
14 18.08 З 5 н/о н/о +21.8 +12.0 54 +24 +24 комфорт 1022.9 1004.1 189
13 18.08 З 5 н/о н/о +21.4 +12.1 55 +24 +24 комфорт 1023.1 1004.4 179
15 18.08 З 4 н/о н/о +20.8 +12.3 58 +23 +23 комфорт 1022.6 1003.8 112
16 18.08 ЮЗ 4 н/о н/о +20.5 +12.6 60 +23 +23 комфорт 1022.7 1003.9 55
17 18.08 ЮЗ 3 н/о н/о +20.3 +12.8 62 +23 +23 комфорт 1022.6 1003.7 40
18 18.08 З 4 н/о н/о +19.8 +12.9 64 +22 +22 комфорт 1022.6 1003.8 +21.9 16
20 18.08 ЮЗ 2 н/о н/о +18.6 +13.2 71 +20 +20 1023.4 1004.5
19 18.08 З 3 н/о н/о +19.2 +12.9 67 +21 +21 комфорт 1022.9 1004.0 3
21 18.08 ЮЗ 2 н/о н/о +18.1 +12.9 72 +19 +19 1023.4 1004.4

 

Местоположение метеостанции Ernage (Бельгия): широта 50.67 долгота 4.68 высота над уровнем моря 158 м.

В архиве по умолчанию представлена погода в Ernage за последнюю неделю. Архивные данные за месяц целиком и за предыдущие месяцы, начиная с января 2011 года, Вы можете получить, выбрав интересующий диапазон дат из раскрывающегося списка и нажав кнопку "Ввод!".


*Определитесь, кто Вы:
робот инопланетянин человек

Внимание! Время в таблицах - всемирное. Для получения местного времени необходимо прибавить поправку, которая в Ernage равна 1 ч.

Смотрите также архив погоды в соседних городах и на ближайших метеорологических станциях:

Погода в Beauvechain (Бельгия) (11 км)
Погода в Uccle (Бельгия) (27 км)
Погода в Charleroi (Бельгия) (28 км)
Погода в Bruxelles (Бельгия) (28 км)
Погода в Schaffen (Бельгия) (46 км)
Погода в Florennes (Бельгия) (49 км)
Погода в Bierset (Бельгия) (54 км)
Погода в Antwerpen (Бельгия) (61 км)
Погода в Diepenbeek (Бельгия) (61 км)
Погода в Chievres (Бельгия) (61 км)

Пояснения к столбцам:

Ветер - указаны скорость ветра в м/с - средняя за 10 мин, порывы в срок и между сроками (в фигурных скобках) и направление, откуда дует ветер: С - северный, СВ - северо-восточный, В - восточный, ЮВ - юго-восточный, Ю - южный, ЮЗ - юго-западный, З - западный, СЗ - северо-западный.
Видимость - горизонтальная дальность видимости в метрах или километрах. При видимости от 1 до 10 км при отсутствии осадков обычно наблюдается дымка, при ухудшении видимости до 1 км и менее - туман. В сухую погоду видимость может ухудшаться дымом, пылью или мглою.
Явления - указаны атмосферные явления, наблюдавшиеся в срок или в последний час перед сроком; фигурными скобками обозначены явления, наблюдавшиеся между сроками (за 1-3 часа до срока); квадратными скобками обозначены град или гололедные отложения с указанием их диаметра в мм.
Облачность - указаны через наклонную черту общая и нижняя облачность в баллах и высота нижней границы облаков в метрах; квадратными скобками обозначены формы облаков: Ci - перистые, Cs - перисто-слоистые, Cc - перисто-кучевые, Ac - высококучевые, As - высокослоистые, Sc - слоисто-кучевые, Ns - слоисто-дождевые, Cu - кучевые, Cb - кучево-дождевые. Подробнее классификацию облаков см. в Атласе облаков (PDF).
T - Температура воздуха - температура, измеренная на высоте 2 м над землей.
Td - Температура точки росы - температура, при понижении до которой содержащийся в воздухе водяной пар достигнет насыщения.
f - Относительная влажность воздуха - влажноcть воздуха, измеренная на высоте 2 м над землей.
Te - Эффективная температура - температура, которую ощущает одетый по сезону человек в тени. Характеристика душности погоды. При расчете учитывается влияние влажности воздуха и скорости ветра на теплоощущения человека.
Tes - Эффективная температура на солнце - температура, которую ощущает человек, с поправкой на солнечный нагрев. Характеристика знойности погоды. Зависит от высоты солнца над горизонтом, облачности и скорости ветра. Ночью, в пасмурную погоду, а также при ветре 12 м/с и более поправка равна нулю.
P - Атмосферное давление - приведенное к уровню моря атмосферное давление.
Po - Атмосферное давление - измеренное на уровне метеостанции атмосферное давление.
Tmin - Минимальная температура - минимум температуры воздуха на высоте 2 м над землей.
Tmax - Максимальная температура - максимум температуры воздуха на высоте 2 м над землей.
R - Количество осадков - Количество выпавших осадков за период времени, мм. При наведении курсора мыши на число - период времени, за который выпало указанное количество осадков.
R24 - Количество осадков - Количество выпавших осадков за 24 часа, мм.
S - Снежный покров - Высота снежного покрова, см. При наведении курсора мыши на число - состояние снежного покрова и степень покрытия местности в баллах.